Sault Sainte Marie, MI

10:43 PM EST on February 10, 2016 (GMT -0500)
Sault Ste Marie Municipal / Sanderson Field

Weather History for KANJ - December, 2012

Change the Weather History Date:

Tuesday, December 4, 2012

  Actual Average Record
Temperature  
Mean Temperature 41 °F 27 °F  
Max Temperature 55 °F 32 °F 59 °F (1961)
Min Temperature 27 °F 21 °F -9 °F (1926)
Degree Days  
Heating Degree Days 24 38  
Month to date heating degree days 111 151  
Since 1 July heating degree days 1899 2083  
Moisture  
Dew Point 29 °F    
Average Humidity 80    
Maximum Humidity 96    
Minimum Humidity 63    
Precipitation  
Precipitation 0.06 in 0.10 in 0.96 in (1961)
Month to date precipitation 0.63 0.42  
Year to date precipitation 26.84 30.58  
Snow  
Snow 0.50 in 1.00 in 7.70 in (1986)
Month to date snowfall 0.5 3.9  
Since 1 July snowfall 23.5 20.6  
Snow Depth T in    
Sea Level Pressure  
Sea Level Pressure 29.89 in    
Wind  
Wind Speed 13 mph (WNW)    
Max Wind Speed 24 mph    
Max Gust Speed 36 mph    
Visibility 7 miles    
Events Rain , Snow    
T = Trace of Precipitation, MM = Missing Value Source: NWS Daily Summary

Daily Weather History Graph

Daily Weather History Graph

Search for Another Location

Airport or City:

Trip Planner

Search our weather history database for the weather conditions in past years. The results will help you decide how hot, cold, wet, or windy it might be!

Date:

Astronomy

Dec. 04, 2012 Rise Set
Actual Time 8:04 AM EST 4:51 PM EST
Civil Twilight 7:30 AM EST 5:25 PM EST
Nautical Twilight 6:52 AM EST 6:03 PM EST
Astronomical Twilight 6:15 AM EST 6:39 PM EST
Moon 10:51 PM EST (12/4) 11:46 AM EST (12/4)
Length of Visible Light 9h 55m
Length of Day
8h 46m
Waning Gibbous, 69% of the Moon is Illuminated
Dec 4
Waning Gibbous
Dec 6
Last Quarter
Dec 13
New
Dec 20
First Quarter
Dec 28
Full

Hourly Weather History & Observations

Time (EST) Temp. Windchill Dew Point Humidity Pressure Visibility Wind Dir Wind Speed Gust Speed Precip Events Conditions
12:55 AM 55.0 °F - 52.0 °F 89% 29.63 in 5.0 mi West 10.4 mph - 0.02 in   Overcast
1:14 AM 51.1 °F - 46.9 °F 86% 29.64 in 6.0 mi NW 15.0 mph 24.2 mph 0.00 in Rain Light Rain
1:55 AM 48.0 °F - 43.0 °F 83% 29.67 in 9.0 mi WNW 9.2 mph - 0.00 in   Overcast
2:15 AM 46.9 °F - 42.1 °F 83% 29.67 in 9.0 mi WNW 10.4 mph - N/A   Overcast
2:53 AM 46.4 °F 41.5 °F 41.0 °F 81% 29.69 in 10.0 mi WNW 10.4 mph - N/A   Overcast
2:55 AM 46.0 °F 41.4 °F 41.0 °F 83% 29.70 in 10.0 mi WNW 9.2 mph - N/A   Overcast
3:17 AM 45.0 °F 40.6 °F 39.9 °F 82% 29.71 in 10.0 mi WNW 8.1 mph - N/A   Scattered Clouds
3:55 AM 43.0 °F 40.3 °F 37.9 °F 82% 29.73 in 10.0 mi West 4.6 mph - N/A   Clear
4:46 AM 42.1 °F 39.2 °F 37.9 °F 85% 29.73 in 10.0 mi West 4.6 mph - N/A   Mostly Cloudy
4:55 AM 42.1 °F 39.2 °F 37.9 °F 85% 29.74 in 10.0 mi SSW 4.6 mph - N/A   Overcast
5:31 AM 41.0 °F 37.1 °F 39.0 °F 93% 29.74 in 7.0 mi SSW 5.8 mph - N/A   Partly Cloudy
5:55 AM 41.0 °F 36.4 °F 37.9 °F 89% 29.75 in 8.0 mi WSW 6.9 mph - N/A   Clear
6:55 AM 41.0 °F 34.3 °F 37.0 °F 86% 29.77 in 10.0 mi SW 11.5 mph - N/A   Clear
7:55 AM 39.9 °F 31.8 °F 35.1 °F 83% 29.79 in 10.0 mi SW 15.0 mph - N/A   Clear
8:55 AM 39.0 °F 31.0 °F 34.0 °F 82% 29.82 in 10.0 mi WSW 13.8 mph - N/A   Clear
9:55 AM 39.0 °F 32.8 °F 33.1 °F 79% 29.83 in 10.0 mi WSW 9.2 mph - N/A   Clear
10:55 AM 39.9 °F 34.5 °F 34.0 °F 79% 29.84 in 10.0 mi West 8.1 mph - N/A   Mostly Cloudy
11:16 AM 42.1 °F 34.9 °F 34.0 °F 73% 29.84 in 10.0 mi West 13.8 mph 23.0 mph N/A   Mostly Cloudy
11:55 AM 42.1 °F 34.9 °F 34.0 °F 73% 29.83 in 10.0 mi West 13.8 mph 20.7 mph N/A   Mostly Cloudy
12:55 PM 39.0 °F 31.4 °F 30.9 °F 73% 29.82 in 10.0 mi WNW 12.7 mph - N/A   Overcast
1:55 PM 37.0 °F 27.4 °F 28.9 °F 73% 29.84 in 10.0 mi WNW 17.3 mph 24.2 mph N/A   Overcast
2:55 PM 35.1 °F 24.5 °F 27.0 °F 72% 29.87 in 10.0 mi WNW 18.4 mph 26.5 mph N/A   Overcast
3:55 PM 34.0 °F 23.4 °F 25.0 °F 70% 29.91 in 10.0 mi WNW 17.3 mph 25.3 mph N/A   Overcast
4:55 PM 32.0 °F 21.6 °F 21.9 °F 66% 29.96 in 10.0 mi WNW 15.0 mph 32.2 mph N/A   Overcast
5:27 PM 30.9 °F 19.8 °F 21.9 °F 69% 29.96 in 10.0 mi WNW 16.1 mph 29.9 mph N/A   Overcast
5:55 PM 30.0 °F 17.9 °F 23.0 °F 75% 29.98 in 7.0 mi WNW 18.4 mph 29.9 mph 0.00 in Snow Light Snow
6:36 PM 28.9 °F 16.9 °F 21.9 °F 75% 29.99 in 2.5 mi WNW 17.3 mph 29.9 mph 0.00 in Snow Light Snow
6:43 PM 28.9 °F 16.1 °F 21.0 °F 72% 29.99 in 9.0 mi WNW 19.6 mph 28.8 mph 0.00 in   Overcast
6:55 PM 28.9 °F 17.3 °F 19.9 °F 69% 30.00 in 10.0 mi WNW 16.1 mph 26.5 mph 0.00 in   Overcast
7:44 PM 28.9 °F 16.9 °F 21.9 °F 75% 30.00 in 1.8 mi WNW 17.3 mph 28.8 mph 0.00 in Snow Light Snow
7:53 PM 28.4 °F 16.2 °F 19.4 °F 69% 30.00 in 3.0 mi WNW 17.3 mph 29.9 mph 0.00 in Snow Light Snow
7:55 PM 28.9 °F 17.3 °F 19.9 °F 69% 30.02 in 5.0 mi WNW 16.1 mph 29.9 mph 0.00 in Snow Light Snow
8:55 PM 30.0 °F 18.7 °F 19.0 °F 64% 30.01 in 9.0 mi WNW 16.1 mph 27.6 mph 0.00 in Snow Light Snow
9:43 PM 28.0 °F 16.5 °F 21.0 °F 75% 30.01 in 2.0 mi WNW 15.0 mph 33.4 mph 0.00 in Snow Light Snow
9:52 PM 28.4 °F 15.1 °F 19.4 °F 69% 30.01 in 7.0 mi WNW 20.7 mph 34.5 mph 0.00 in Snow Light Snow
9:55 PM 28.9 °F 16.9 °F 21.0 °F 72% 30.03 in 3.0 mi WNW 17.3 mph 34.5 mph 0.00 in Snow Light Snow
10:00 PM 28.0 °F 17.0 °F 21.0 °F 75% 30.01 in 2.0 mi WNW 13.8 mph 34.5 mph 0.00 in Snow Light Snow
10:11 PM 27.0 °F 15.6 °F 21.9 °F 81% 30.01 in 0.8 mi WNW 13.8 mph 33.4 mph 0.01 in Snow Light Snow
10:20 PM 28.0 °F 16.5 °F 23.0 °F 81% 30.02 in 2.5 mi WNW 15.0 mph 26.5 mph 0.01 in Snow Light Snow
10:23 PM 28.0 °F 15.7 °F 21.9 °F 78% 30.02 in 3.0 mi WNW 17.3 mph 26.5 mph 0.01 in Snow Light Snow
10:55 PM 30.0 °F 19.5 °F 21.0 °F 69% 30.05 in 10.0 mi WNW 13.8 mph 25.3 mph 0.01 in   Mostly Cloudy
11:16 PM 28.9 °F 16.1 °F 21.0 °F 72% 30.03 in 2.5 mi WNW 19.6 mph 28.8 mph 0.01 in Snow Light Snow
11:23 PM 28.0 °F 17.5 °F 23.0 °F 81% 30.03 in 0.8 mi NW 12.7 mph 28.8 mph 0.01 in Snow Light Snow
11:34 PM 28.0 °F 18.6 °F 24.1 °F 85% 30.03 in 1.2 mi NNW 10.4 mph - 0.03 in Snow Light Snow
11:38 PM 28.0 °F 19.3 °F 24.1 °F 85% 30.04 in 3.0 mi NNW 9.2 mph - 0.03 in Snow Light Snow
11:55 PM 30.0 °F 20.0 °F 18.0 °F 61% 30.07 in 10.0 mi NNW 12.7 mph 25.3 mph 0.03 in   Overcast